Track COSMOS 2110 (GLONASS) now! COSMOS 2110 (GLONASS) is classified as:
1 21007U 90110B 21023.86771098 -.00000007 00000-0 00000-0 0 9993 2 21007 64.1915 139.2840 0045913 196.0474 165.5015 2.13101289234489